Terminal Aerodrome Forecast
Issued by NWS

Home | Current Version | Previous Version | Text Only | Print | Product List | Glossary On
Versions: 1 2 3 4 5 6 7 8 9 10 11 12 13 14 15 16 17 18 19 20
000
FTUS41 KOKX 260500
TAFSWF
TAF
KSWF 260530Z 2606/2712 VRB03KT P6SM BKN250
     FM261200 25006KT P6SM BKN250
     FM261500 23010KT P6SM SCT040 BKN120
     FM270000 21007KT P6SM BKN035 OVC100
     FM270600 20005KT 4SM BR VCSH BKN030 OVC100
      AMD NOT SKED=

USA.gov is the U.S. government's official web portal to all federal, state and local government web resources and services.